Temp
-8 -9 -9 -8 -8 -9 -9 -9 -9 -8 -8 -9 -10 -10 -10 -10 -10 -10 -10 -10 -10 -10 -10 -10 -10 -10 -9 -9 -9 -9 -9 -9 -9 -9 -9 -9 -9 -9 -9 -9 -9 -9 -9 -9 -9 -9 -9 -9 -9
-8 -9 -9 -8 -9 -9 -9 -9 -10 -9 -9 -9 -9 -10 -10 -10 -10 -10 -10 -10 -10 -10 -10 -10 -10 -9 -9 -9 -9 -9 -9 -9 -9 -9 -9 -9 -9 -9 -9 -9 -9 -9 -9 -9 -9 -9 -9 -9 -9
-7 -8 -9 -9 -9 -8 -9 -9 -8 -8 -8 -9 -9 -9 -9 -9 -9 -9 -9 -9 -10 -10 -10 -10 -9 -9 -9 -9 -9 -9 -9 -9 -9 -9 -9 -9 -9 -9 -9 -9 -9 -9 -9 -9 -9 -9 -9 -9 -9
-8 -8 -9 -9 -9 -9 -9 -9 -9 -9 -9 -9 -9 -9 -9 -9 -9 -9 -9 -9 -9 -9 -10 -9 -9 -9 -9 -9 -9 -9 -9 -9 -9 -9 -9 -9 -9 -9 -9 -9 -10 -10 -9 -9 -9 -9 -9 -9 -9
-8 -8 -10 -10 -10 -9 -9 -9 -9 -10 -10 -9 -9 -9 -9 -9 -9 -9 -9 -9 -9 -9 -9 -9 -9 -9 -9 -9 -9 -9 -9 -9 -9 -9 -9 -9 -9 -9 -10 -10 -10 -9 -9 -9 -9 -9 -9 -9 -9
-8 -9 -10 -10 -10 -9 -9 -9 -10 -10 -10 -10 -9 -9 -9 -9 -9 -9 -9 -9 -9 -9 -9 -9 -9 -9 -9 -9 -9 -9 -9 -9 -9 -9 -9 -9 -9 -9 -10 -10 -10 -9 -9 -9 -9 -10 -9 -9 -9
-8 -9 -10 -10 -10 -9 -9 -9 -10 -10 -10 -10 -9 -10 -9 -9 -8 -8 -9 -9 -9 -9 -9 -9 -9 -9 -8 -9 -9 -9 -9 -9 -9 -9 -9 -9 -9 -9 -10 -10 -10 -10 -9 -9 -9 -9 -9 -9 -9
-8 -8 -10 -10 -10 -10 -9 -9 -10 -10 -11 -10 -9 -11 -10 -8 -9 -8 -9 -9 -9 -9 -9 -9 -9 -8 -8 -8 -8 -9 -9 -9 -9 -9 -9 -9 -9 -9 -10 -10 -10 -10 -10 -9 -9 -9 -10 -10 -9
-8 -8 -11 -11 -9 -11 -9 -10 -10 -10 -10 -10 -10 -9 -9 -9 -9 -9 -9 -9 -9 -9 -9 -9 -8 -8 -8 -8 -8 -8 -9 -9 -9 -9 -9 -9 -9 -9 -9 -9 -9 -10 -10 -10 -10 -10 -10 -10 -10
-7 -8 -11 -9 -8 -9 -9 -10 -10 -10 -10 -10 -10 -10 -9 -9 -9 -9 -9 -9 -9 -9 -9 -9 -9 -8 -8 -8 -8 -8 -8 -9 -9 -9 -9 -9 -9 -9 -9 -9 -9 -9 -10 -10 -10 -10 -10 -10 -10
-7 -7 -7 -8 -8 -8 -9 -9 -10 -10 -11 -12 -11 -11 -10 -10 -9 -9 -9 -9 -9 -9 -8 -8 -8 -8 -8 -8 -8 -8 -8 -8 -9 -9 -9 -9 -9 -9 -9 -9 -9 -9 -10 -10 -10 -10 -10 -10 -10
-6 -7 -7 -8 -8 -8 -8 -9 -9 -9 -10 -10 -9 -10 -10 -10 -10 -10 -9 -9 -9 -9 -9 -8 -8 -8 -8 -8 -8 -8 -8 -8 -9 -9 -9 -9 -9 -9 -9 -9 -9 -9 -10 -10 -10 -10 -10 -10 -10
-7 -7 -7 -7 -7 -8 -8 -8 -9 -9 -9 -10 -10 -10 -10 -10 -10 -10 -10 -10 -9 -8 -8 -9 -8 -8 -8 -8 -8 -8 -9 -9 -8 -8 -9 -8 -9 -9 -9 -9 -9 -9 -10 -10 -10 -10 -10 -10 -10
-7 -7 -7 -7 -7 -8 -8 -8 -7 -8 -9 -8 -9 -9 -10 -10 -10 -10 -10 -10 -10 -9 -8 -8 -8 -8 -8 -8 -9 -9 -9 -9 -9 -9 -9 -9 -9 -9 -9 -9 -10 -9 -10 -10 -10 -10 -10 -10 -10
-8 -8 -8 -8 -7 -8 -8 -8 -8 -7 -7 -8 -8 -8 -9 -9 -10 -10 -10 -10 -10 -9 -9 -9 -8 -8 -8 -8 -8 -8 -9 -9 -9 -9 -9 -9 -9 -9 -10 -10 -10 -10 -10 -10 -10 -10 -10 -11 -11
-8 -8 -9 -8 -8 -8 -8 -8 -8 -8 -7 -8 -8 -8 -8 -9 -9 -9 -10 -10 -10 -10 -9 -9 -9 -8 -9 -8 -8 -9 -9 -9 -10 -10 -9 -10 -10 -10 -10 -10 -10 -10 -10 -10 -10 -10 -11 -11 -11
-8 -9 -9 -9 -8 -8 -8 -9 -9 -8 -8 -8 -8 -8 -8 -8 -9 -9 -9 -9 -10 -9 -9 -9 -9 -9 -9 -9 -9 -9 -9 -10 -10 -10 -10 -10 -10 -10 -10 -10 -10 -10 -10 -10 -11 -11 -11 -11 -11
-10 -11 -9 -9 -9 -8 -8 -8 -9 -8 -8 -8 -8 -8 -8 -8 -9 -9 -9 -10 -10 -10 -9 -9 -9 -10 -10 -10 -10 -10 -10 -10 -10 -10 -10 -10 -10 -10 -10 -10 -11 -11 -11 -11 -11 -11 -11 -11 -11
-10 -9 -9 -9 -9 -9 -9 -9 -9 -8 -9 -9 -8 -8 -8 -8 -9 -9 -9 -9 -9 -10 -10 -10 -10 -10 -10 -10 -10 -10 -10 -10 -10 -10 -10 -10 -10 -10 -10 -11 -11 -11 -12 -12 -12 -12 -12 -11 -11
-9 -10 -9 -10 -10 -9 -9 -9 -9 -9 -9 -9 -9 -9 -9 -8 -8 -8 -9 -9 -9 -10 -10 -10 -10 -10 -10 -10 -11 -11 -11 -11 -11 -11 -11 -10 -10 -11 -11 -11 -11 -11 -12 -12 -12 -12 -12 -12 -12
-10 -10 -10 -10 -10 -10 -10 -9 -9 -9 -9 -9 -9 -9 -9 -9 -9 -9 -9 -9 -9 -10 -10 -10 -10 -10 -10 -10 -10 -11 -11 -11 -11 -11 -11 -11 -11 -11 -11 -11 -11 -12 -12 -12 -12 -12 -12 -12 -12
-10 -11 -11 -11 -10 -10 -10 -9 -10 -9 -9 -9 -9 -9 -9 -9 -9 -9 -9 -9 -10 -10 -10 -10 -10 -10 -10 -11 -11 -11 -11 -11 -11 -11 -11 -11 -11 -12 -12 -12 -12 -12 -12 -12 -12 -12 -12 -12 -12
-11 -12 -11 -11 -11 -10 -10 -10 -9 -10 -11 -10 -9 -9 -9 -9 -9 -9 -9 -9 -10 -10 -10 -10 -11 -11 -11 -11 -11 -11 -11 -12 -12 -11 -12 -12 -12 -12 -12 -13 -13 -13 -13 -13 -13 -13 -13 -12 -12
-12 -12 -12 -11 -11 -11 -10 -10 -10 -11 -11 -11 -10 -10 -9 -9 -10 -10 -10 -10 -10 -10 -10 -10 -11 -11 -12 -11 -11 -11 -12 -12 -13 -13 -13 -13 -13 -13 -13 -13 -13 -13 -13 -13 -13 -13 -13 -13 -12
-13 -13 -13 -12 -11 -11 -11 -12 -11 -11 -12 -11 -10 -10 -10 -10 -10 -10 -10 -10 -10 -10 -11 -11 -11 -11 -11 -12 -12 -12 -12 -12 -13 -13 -13 -13 -13 -13 -13 -13 -13 -13 -13 -12 -12 -13 -13 -13 -13
-13 -13 -13 -12 -13 -12 -12 -12 -12 -12 -11 -10 -11 -10 -10 -10 -10 -10 -10 -11 -11 -11 -11 -11 -11 -11 -12 -12 -12 -12 -12 -12 -13 -13 -13 -13 -13 -13 -13 -13 -13 -13 -13 -13 -13 -13 -13 -13 -13
-13 -15 -12 -13 -13 -13 -12 -12 -13 -12 -11 -11 -11 -11 -11 -11 -11 -11 -11 -11 -11 -11 -11 -12 -12 -12 -12 -12 -12 -12 -12 -12 -12 -12 -13 -13 -13 -13 -13 -13 -13 -13 -13 -13 -13 -13 -13 -13 -13
-15 -13 -15 -14 -14 -13 -13 -13 -13 -13 -12 -11 -11 -11 -11 -11 -11 -11 -11 -11 -11 -12 -12 -12 -12 -12 -12 -12 -12 -12 -12 -12 -13 -13 -13 -13 -13 -13 -13 -12 -12 -12 -12 -13 -13 -13 -13 -13 -13
-15 -15 -14 -15 -15 -14 -14 -13 -13 -12 -12 -13 -12 -11 -12 -11 -11 -11 -11 -11 -12 -12 -12 -12 -12 -12 -13 -12 -12 -12 -12 -12 -12 -12 -13 -13 -13 -13 -13 -13 -12 -12 -12 -13 -13 -14 -14 -13 -13
-16 -15 -14 -14 -14 -14 -14 -13 -12 -13 -13 -14 -13 -12 -12 -12 -12 -12 -12 -12 -12 -12 -12 -12 -12 -12 -12 -13 -13 -12 -12 -12 -12 -12 -12 -12 -13 -13 -13 -13 -13 -13 -13 -14 -14 -14 -13 -13 -13
Height
5879 5881 5883 5883 5887 5887 5891 5887 5885 5882 5879 5877 5876 5875 5874 5872 5871 5871 5870 5869 5869 5868 5869 5869 5870 5870 5872 5873 5875 5875 5876 5876 5876 5877 5877 5877 5877 5877 5877 5878 5878 5878 5878 5877 5877 5877 5877 5877 5877
5880 5882 5884 5885 5886 5891 5891 5886 5886 5881 5879 5876 5876 5875 5874 5871 5870 5869 5868 5867 5867 5867 5868 5869 5870 5871 5872 5873 5874 5875 5876 5876 5877 5877 5878 5878 5878 5878 5878 5879 5879 5878 5878 5878 5878 5877 5877 5877 5877
5881 5883 5885 5885 5891 5897 5891 5886 5884 5881 5879 5877 5877 5876 5873 5870 5869 5868 5867 5866 5866 5866 5867 5869 5870 5871 5872 5873 5874 5875 5876 5876 5877 5878 5878 5879 5879 5879 5879 5879 5879 5879 5879 5878 5877 5877 5877 5876 5877
5880 5883 5885 5887 5893 5889 5887 5885 5884 5881 5880 5879 5878 5876 5873 5871 5868 5867 5866 5865 5864 5865 5866 5867 5869 5872 5873 5874 5874 5875 5876 5876 5877 5878 5878 5879 5879 5879 5879 5879 5879 5879 5879 5878 5877 5876 5876 5876 5875
5882 5882 5884 5892 5889 5887 5885 5884 5882 5881 5880 5879 5879 5875 5873 5871 5868 5866 5865 5864 5863 5863 5865 5866 5868 5870 5872 5873 5874 5875 5876 5876 5877 5878 5879 5879 5880 5879 5879 5878 5878 5878 5877 5877 5876 5875 5875 5874 5874
5882 5883 5888 5893 5888 5886 5884 5882 5881 5881 5880 5877 5877 5875 5873 5871 5868 5865 5864 5863 5863 5863 5864 5867 5868 5870 5871 5872 5874 5875 5875 5876 5877 5877 5878 5879 5879 5879 5878 5878 5877 5876 5876 5875 5875 5874 5873 5873 5872
5882 5883 5889 5891 5887 5884 5883 5881 5881 5880 5878 5877 5875 5875 5872 5870 5868 5866 5864 5863 5862 5863 5863 5865 5867 5869 5870 5871 5873 5874 5874 5875 5876 5877 5878 5878 5878 5878 5877 5877 5876 5876 5875 5874 5873 5873 5872 5871 5871
5882 5882 5885 5886 5886 5886 5882 5881 5880 5880 5882 5877 5875 5877 5873 5870 5868 5866 5864 5864 5863 5862 5864 5865 5865 5868 5870 5872 5873 5873 5874 5875 5875 5876 5876 5876 5876 5876 5875 5875 5875 5874 5874 5873 5872 5871 5871 5870 5868
5883 5882 5886 5887 5884 5884 5880 5880 5879 5878 5877 5875 5873 5873 5871 5870 5868 5866 5864 5864 5864 5864 5863 5864 5866 5868 5869 5871 5872 5873 5873 5874 5874 5874 5874 5874 5874 5873 5873 5872 5872 5872 5872 5871 5870 5869 5868 5867 5866
5880 5881 5883 5879 5879 5879 5878 5877 5877 5877 5876 5875 5872 5871 5869 5868 5867 5866 5864 5863 5863 5863 5863 5864 5866 5867 5869 5870 5871 5871 5872 5872 5872 5872 5872 5872 5872 5871 5871 5870 5869 5869 5868 5868 5867 5866 5865 5864 5863
5876 5877 5877 5877 5876 5877 5875 5876 5875 5875 5875 5875 5873 5870 5868 5867 5866 5865 5864 5863 5863 5863 5863 5865 5866 5867 5868 5868 5869 5870 5871 5871 5871 5871 5870 5870 5870 5869 5868 5867 5866 5866 5865 5864 5864 5863 5862 5860 5859
5874 5873 5873 5874 5875 5873 5873 5872 5873 5873 5872 5870 5869 5869 5866 5865 5864 5863 5863 5862 5862 5862 5862 5863 5865 5866 5867 5867 5867 5867 5868 5868 5869 5869 5868 5867 5867 5866 5865 5864 5863 5862 5862 5861 5860 5860 5859 5857 5856
5872 5871 5870 5869 5869 5869 5869 5870 5868 5869 5868 5867 5866 5865 5864 5863 5861 5860 5861 5860 5859 5861 5861 5861 5862 5862 5863 5864 5864 5864 5864 5864 5864 5864 5863 5863 5862 5862 5861 5860 5859 5859 5858 5857 5856 5855 5854 5852 5851
5869 5869 5868 5867 5865 5866 5865 5865 5864 5864 5862 5864 5863 5862 5861 5860 5859 5858 5858 5856 5857 5856 5858 5859 5859 5860 5860 5860 5861 5861 5861 5860 5859 5859 5858 5857 5857 5856 5855 5854 5854 5853 5852 5852 5850 5850 5849 5847 5846
5866 5866 5865 5865 5863 5862 5862 5862 5861 5861 5858 5858 5859 5858 5857 5857 5856 5856 5855 5854 5853 5853 5853 5855 5855 5856 5856 5856 5856 5855 5856 5855 5854 5853 5852 5851 5850 5849 5848 5848 5848 5847 5846 5845 5844 5843 5843 5842 5841
5863 5863 5862 5862 5861 5860 5859 5859 5859 5858 5856 5856 5855 5855 5855 5855 5853 5852 5852 5851 5850 5849 5848 5849 5850 5851 5851 5850 5850 5850 5849 5848 5847 5847 5846 5845 5844 5843 5842 5842 5841 5840 5840 5839 5837 5837 5836 5835 5834
5859 5860 5858 5857 5857 5857 5856 5855 5854 5855 5854 5853 5850 5850 5850 5849 5848 5847 5847 5847 5846 5845 5845 5844 5845 5845 5845 5845 5844 5844 5843 5842 5841 5841 5840 5840 5838 5837 5836 5834 5834 5833 5832 5832 5831 5830 5829 5829 5827
5854 5855 5854 5853 5851 5853 5852 5852 5850 5850 5850 5850 5848 5846 5845 5844 5843 5842 5842 5842 5842 5841 5841 5841 5841 5840 5839 5838 5838 5838 5837 5837 5835 5835 5834 5833 5833 5832 5830 5829 5828 5826 5826 5825 5824 5823 5822 5821 5820
5845 5846 5848 5848 5845 5846 5848 5848 5847 5847 5845 5845 5844 5842 5841 5840 5839 5838 5838 5837 5837 5836 5835 5835 5835 5834 5833 5833 5833 5832 5832 5830 5831 5830 5829 5827 5826 5825 5824 5823 5821 5820 5819 5818 5817 5816 5815 5814 5812
5837 5838 5842 5842 5839 5839 5843 5843 5842 5842 5842 5841 5840 5839 5838 5837 5836 5835 5833 5833 5832 5831 5831 5829 5829 5828 5828 5827 5827 5826 5825 5824 5823 5822 5822 5820 5819 5817 5816 5816 5815 5814 5813 5813 5811 5810 5808 5807 5803
5830 5832 5835 5834 5833 5831 5837 5836 5837 5835 5835 5836 5835 5834 5834 5833 5831 5830 5828 5828 5827 5826 5825 5824 5823 5822 5822 5822 5821 5820 5818 5818 5817 5816 5815 5813 5812 5812 5811 5810 5809 5807 5806 5806 5805 5802 5800 5799 5796
5822 5825 5823 5824 5826 5826 5827 5828 5831 5830 5828 5829 5829 5829 5829 5828 5827 5826 5823 5822 5821 5820 5820 5820 5819 5817 5816 5816 5815 5814 5812 5812 5811 5810 5808 5807 5806 5805 5804 5803 5801 5800 5798 5799 5796 5795 5792 5789 5787
5812 5812 5812 5816 5817 5818 5821 5818 5826 5826 5823 5822 5821 5823 5823 5824 5823 5821 5820 5819 5818 5816 5815 5814 5813 5813 5812 5811 5810 5808 5807 5806 5804 5803 5801 5800 5799 5798 5798 5796 5793 5791 5788 5788 5787 5785 5782 5779 5775
5805 5801 5805 5807 5808 5804 5813 5814 5815 5819 5818 5817 5812 5816 5817 5816 5816 5815 5814 5813 5812 5811 5810 5809 5808 5808 5807 5806 5804 5802 5801 5800 5798 5797 5795 5793 5791 5789 5789 5788 5786 5782 5779 5778 5776 5773 5771 5769 5765
5788 5788 5795 5798 5796 5797 5806 5805 5807 5811 5810 5810 5806 5810 5809 5809 5808 5807 5806 5806 5805 5804 5804 5803 5802 5802 5800 5799 5798 5797 5795 5794 5792 5790 5788 5786 5783 5781 5779 5777 5775 5772 5768 5766 5763 5761 5760 5757 5753
5779 5783 5784 5784 5791 5796 5800 5795 5797 5800 5800 5803 5801 5802 5801 5802 5802 5801 5800 5799 5799 5798 5797 5797 5797 5796 5794 5793 5792 5791 5789 5787 5786 5783 5781 5778 5775 5771 5768 5767 5764 5760 5757 5755 5751 5748 5746 5742 5740
5769 5764 5778 5776 5780 5780 5784 5788 5788 5789 5793 5794 5795 5794 5794 5794 5793 5793 5792 5791 5792 5791 5791 5790 5790 5789 5788 5787 5785 5784 5781 5779 5777 5774 5771 5768 5764 5760 5756 5751 5750 5747 5744 5741 5738 5736 5733 5730 5728
5746 5763 5761 5760 5762 5764 5770 5775 5780 5786 5785 5781 5784 5784 5785 5785 5785 5785 5784 5784 5784 5784 5784 5783 5782 5781 5780 5778 5776 5774 5772 5769 5766 5763 5760 5755 5751 5746 5743 5739 5735 5732 5731 5727 5725 5723 5720 5716 5713
5740 5738 5745 5750 5754 5752 5757 5763 5776 5780 5777 5772 5774 5775 5776 5777 5776 5776 5777 5776 5775 5774 5774 5774 5773 5772 5771 5769 5767 5764 5762 5759 5756 5752 5748 5743 5738 5733 5728 5724 5721 5719 5715 5713 5711 5709 5706 5702 5700
5722 5727 5731 5732 5739 5741 5745 5748 5766 5765 5763 5762 5765 5765 5766 5767 5767 5767 5766 5767 5766 5764 5763 5762 5761 5760 5758 5757 5756 5753 5750 5747 5743 5739 5735 5729 5724 5719 5715 5710 5707 5704 5701 5699 5697 5694 5691 5688 5686
Wind_Speed
12 11 9 9 7 13 1 5 6 9 11 13 11 12 9 8 6 8 7 5 4 7 8 11 14 17 17 16 12 10 9 9 10 10 9 8 7 5 4 5 6 6 4 2 2 4 4 7 7
11 12 10 9 11 7 7 6 3 10 12 13 8 7 8 8 4 4 5 5 5 8 8 13 16 21 18 16 12 9 9 9 9 9 7 6 4 3 2 2 3 3 2 1 1 2 4 4 5
11 10 11 14 10 6 5 1 4 8 11 9 6 8 9 7 6 5 7 7 9 9 8 14 18 22 19 16 13 11 10 10 8 6 5 4 1 1 1 1 1 2 3 3 2 4 4 4 4
12 9 9 13 5 14 6 2 7 9 10 11 13 12 15 11 8 7 8 7 10 11 10 16 20 21 20 16 13 12 10 8 7 5 3 1 1 1 2 3 3 3 3 4 5 6 6 7 6
8 9 8 3 7 8 5 1 5 9 9 10 9 15 16 11 9 9 8 7 11 13 13 18 23 21 20 16 13 12 10 9 7 4 1 2 4 4 4 4 6 6 7 8 8 9 9 8 8
8 10 12 4 6 5 4 2 6 4 6 9 12 12 13 11 9 8 7 6 9 14 15 17 23 22 21 17 13 12 12 10 7 5 2 3 6 8 7 7 7 7 7 10 11 10 9 9 9
7 11 7 14 8 6 2 3 3 5 5 8 10 12 13 13 10 6 7 7 9 11 16 19 24 24 21 18 14 12 11 9 7 4 4 5 7 9 9 10 10 8 7 9 11 10 10 10 11
8 7 9 7 7 13 6 5 4 2 2 6 6 4 14 14 9 5 5 6 6 10 14 17 24 25 21 18 14 13 11 8 7 7 8 9 9 9 9 11 11 11 10 10 9 10 11 12 14
5 9 6 8 11 15 10 9 9 7 7 5 7 7 9 13 11 6 5 3 5 9 13 17 25 25 22 19 16 13 13 11 11 12 13 13 12 11 11 12 13 13 14 14 13 13 14 16 18
3 7 9 17 15 15 13 12 11 9 8 8 8 9 8 10 10 10 6 4 4 8 12 18 23 22 22 20 18 17 17 16 16 16 16 16 15 15 15 14 14 15 18 18 18 17 17 18 20
5 7 8 13 15 14 15 15 14 13 11 10 14 11 10 9 10 9 10 6 4 5 11 20 22 22 23 22 21 21 20 20 20 20 20 20 19 19 19 19 18 19 20 22 22 22 22 22 21
8 6 6 10 10 11 15 16 15 16 16 17 14 12 13 12 11 10 10 11 8 8 11 18 22 24 24 24 24 24 24 24 24 24 25 25 25 24 24 23 23 23 23 25 26 26 26 25 25
10 8 7 6 7 8 11 13 15 14 18 20 16 14 14 14 14 13 10 12 14 12 15 19 24 25 25 27 27 28 28 27 27 28 28 28 30 30 29 28 27 27 27 27 30 31 31 30 29
14 11 9 8 8 9 7 11 13 14 19 17 19 17 17 17 17 17 15 16 15 17 18 21 26 27 27 28 30 31 32 32 32 33 33 32 32 33 33 33 32 30 30 30 31 33 35 34 33
17 15 12 10 9 10 11 8 8 15 21 18 16 17 17 17 19 21 20 22 20 19 21 21 26 29 30 31 31 33 34 35 35 34 33 33 34 35 35 35 34 33 33 33 33 34 35 35 35
20 18 16 16 11 9 11 13 10 10 12 19 18 17 16 18 21 19 23 26 26 27 25 24 23 24 26 28 30 29 31 30 30 31 30 31 33 34 35 35 34 34 33 34 35 36 36 35 36
24 21 22 20 18 14 12 11 14 15 12 13 18 19 19 19 21 21 24 27 30 31 30 27 27 27 27 28 30 29 29 30 27 26 28 29 32 34 34 35 35 34 34 35 36 36 36 37 38
22 22 25 26 28 20 16 13 16 16 16 11 13 17 18 20 20 20 20 23 27 29 30 30 30 30 32 32 33 33 32 31 33 30 30 31 32 33 34 35 35 35 35 35 36 36 38 38 39
36 34 30 28 33 30 22 18 19 17 17 17 9 10 14 17 20 21 20 18 18 21 25 25 26 30 33 33 33 34 33 34 34 34 34 35 34 33 33 34 35 36 36 36 37 38 39 40 41
40 39 33 33 36 36 29 24 22 21 19 19 15 12 11 13 16 17 17 16 19 22 23 25 26 28 27 29 31 33 35 34 33 33 33 36 37 38 37 36 37 37 38 38 38 40 41 41 44
44 43 38 39 39 40 32 32 25 26 23 22 21 18 15 13 12 13 15 16 18 21 23 24 26 28 28 28 30 32 36 33 33 33 35 37 38 39 40 40 39 41 41 40 39 42 45 45 46
47 44 46 44 42 41 37 37 25 27 29 26 25 22 19 17 12 11 12 16 18 20 22 24 27 29 31 31 31 32 34 35 35 34 34 37 37 38 40 41 43 43 44 43 45 45 48 50 50
46 46 48 45 44 42 41 42 33 30 29 29 31 26 23 21 19 16 15 14 13 16 19 18 23 27 29 33 33 35 33 36 37 37 37 37 39 41 42 44 46 48 50 50 50 50 50 53 55
44 49 46 44 45 47 42 40 38 28 29 25 36 27 26 25 24 22 18 19 23 23 18 17 18 21 25 28 28 30 33 35 37 38 40 42 45 47 47 47 49 51 53 54 54 54 54 52 52
53 52 45 46 48 49 40 33 38 25 27 27 37 31 29 26 27 26 24 23 24 28 27 23 22 23 25 26 30 33 36 38 40 42 45 48 51 53 54 54 56 56 58 58 58 58 58 55 55
55 50 49 50 36 33 29 39 36 35 34 34 37 34 32 28 27 28 28 28 27 29 28 23 22 25 24 27 30 34 36 39 43 46 50 54 58 60 62 61 62 62 62 61 61 60 58 57 58
54 52 52 48 47 47 44 35 30 31 35 34 33 34 32 30 30 31 32 32 31 33 30 27 25 26 29 31 32 35 37 38 40 43 46 49 52 55 56 59 58 61 62 61 61 58 59 59 57
55 54 47 52 51 53 47 41 40 31 33 43 37 35 32 32 33 35 35 34 36 37 35 34 32 33 35 36 39 40 42 44 43 45 49 54 58 61 60 59 61 62 61 61 61 60 57 58 56
44 58 56 53 42 47 48 46 33 30 34 33 30 33 33 34 35 37 37 38 38 40 42 42 42 42 41 41 42 44 46 49 49 51 54 56 57 56 57 59 61 60 64 59 55 53 54 54 52
38 43 59 58 58 56 51 53 41 34 40 34 37 40 36 35 35 37 40 42 43 44 46 47 49 49 49 49 48 49 50 52 56 56 57 59 55 58 60 58 58 59 60 59 55 51 56 57 53
Wind_Direction
102 112 120 129 108 74 285 251 278 277 280 288 291 297 312 282 278 258 240 229 197 161 152 156 144 139 147 148 147 143 139 126 120 120 121 115 112 108 101 104 108 109 86 77 68 57 37 37 29
105 112 118 102 84 114 275 297 270 290 301 293 300 310 296 287 258 238 240 230 196 171 157 168 154 155 158 159 154 148 141 135 130 129 129 121 111 106 106 146 129 151 181 192 341 357 21 25 24
84 106 118 119 87 202 249 63 8 359 342 319 305 306 305 295 296 276 250 239 188 178 166 174 164 169 167 166 157 160 155 147 141 129 118 114 112 27 31 225 192 188 237 230 256 287 309 316 346
89 103 116 95 220 195 189 58 28 18 358 333 327 306 310 297 301 301 288 255 208 194 176 175 174 177 175 175 168 171 172 161 149 149 148 144 287 302 283 270 253 241 259 267 275 282 287 289 301
105 100 99 118 204 192 187 20 13 1 332 315 325 307 311 297 291 285 273 256 210 194 186 182 181 184 182 181 182 179 183 180 175 166 159 316 320 316 294 295 292 281 264 267 279 281 276 282 289
122 102 87 301 242 259 242 69 51 356 321 319 318 307 314 310 295 294 288 249 199 187 188 192 190 190 187 189 192 190 186 186 193 203 237 305 321 312 303 296 289 287 278 275 280 284 280 290 298
138 136 140 213 248 263 262 201 61 21 3 323 328 320 326 319 310 313 303 243 184 196 191 193 194 195 195 197 203 201 192 196 214 236 274 294 301 302 301 296 295 281 282 277 287 286 276 280 289
154 161 176 202 252 252 253 232 208 49 290 310 320 356 300 319 315 334 326 248 206 195 204 202 198 196 201 205 209 211 210 217 236 254 269 279 281 286 286 283 286 272 274 274 271 274 275 274 281
162 170 206 233 216 244 233 248 242 228 250 290 297 295 305 309 320 340 360 312 244 221 213 212 200 201 203 211 218 224 229 237 249 262 269 276 279 286 286 278 277 273 267 268 275 279 275 274 276
243 204 215 220 227 225 224 223 231 241 273 270 276 276 286 301 311 324 336 341 283 241 223 203 201 206 212 217 224 231 240 248 255 261 270 276 274 277 289 289 280 273 262 269 275 275 279 281 279
262 254 253 234 230 235 236 239 230 226 229 260 255 273 269 284 299 308 310 314 291 250 222 205 208 214 221 226 233 242 251 258 263 268 273 275 273 274 277 286 292 284 269 264 270 276 281 285 281
257 256 250 259 245 237 245 245 251 254 244 235 245 250 264 265 275 283 290 291 278 259 229 217 219 224 231 237 242 247 255 262 270 276 281 279 276 274 276 280 284 284 281 273 270 273 276 280 284
250 247 255 265 269 261 258 255 243 248 249 258 254 248 253 256 257 262 266 274 274 258 246 229 226 232 238 242 247 253 257 263 267 273 277 281 278 276 276 276 279 282 282 279 276 275 278 281 284
258 253 258 268 281 292 278 257 270 245 246 254 253 248 246 246 248 251 254 249 257 263 253 247 243 242 245 248 253 259 264 268 271 273 275 277 275 274 275 277 279 281 281 281 280 277 276 279 282
262 267 267 258 270 293 302 288 262 260 273 268 261 256 251 243 245 250 248 253 252 255 257 255 254 255 258 261 264 269 273 277 278 278 279 277 275 272 272 276 280 282 283 282 280 278 277 278 279
255 262 267 261 262 270 281 295 302 273 275 277 276 273 268 257 252 248 243 247 252 255 256 259 259 261 267 270 273 276 275 274 279 281 279 277 275 274 276 278 280 281 282 281 282 279 276 274 277
253 254 261 269 260 259 263 290 297 305 296 276 279 277 274 266 260 252 248 248 246 251 258 259 263 266 266 268 270 273 277 280 276 280 283 282 279 277 277 276 278 279 280 280 280 278 277 277 279
252 257 254 265 272 257 259 261 290 301 303 291 271 274 272 269 265 259 260 261 253 254 258 257 257 260 264 264 267 268 272 272 276 279 282 281 282 282 280 280 280 280 279 279 278 277 277 278 280
250 250 254 262 268 268 265 258 271 277 289 296 279 270 279 268 266 271 266 256 254 253 256 259 261 262 262 268 272 274 275 272 271 278 282 284 285 283 280 278 278 277 277 277 277 278 280 283 283
248 254 253 260 266 268 268 267 266 268 272 279 286 292 290 289 288 288 281 271 259 261 260 263 264 263 263 265 266 271 274 276 278 280 281 279 282 283 281 280 279 278 279 280 280 280 280 282 285
251 255 257 259 261 268 270 267 272 265 267 269 277 289 298 302 297 295 289 285 269 267 266 270 275 278 276 274 274 273 277 280 280 281 277 277 278 281 285 286 283 282 281 281 281 283 283 285 288
252 256 258 258 261 266 265 267 253 271 271 269 273 279 287 296 301 305 299 298 292 282 279 278 278 281 282 284 281 278 277 282 282 281 279 280 281 280 281 282 282 281 283 283 284 283 285 285 284
253 253 255 260 262 262 260 267 263 266 262 273 272 274 279 280 280 290 286 292 307 298 281 277 280 278 281 282 284 285 290 282 287 291 293 288 281 280 282 283 284 285 285 286 285 284 283 285 284
255 257 255 258 261 261 263 266 264 257 270 262 271 274 276 278 280 279 284 289 295 307 306 289 276 274 276 278 281 285 284 281 282 284 283 284 286 287 284 282 280 279 281 282 283 282 282 284 285
247 253 256 258 257 264 267 261 265 257 240 252 271 274 276 276 279 283 286 288 291 298 307 307 302 294 294 294 292 292 287 283 281 281 280 278 280 281 282 283 280 279 281 284 284 286 285 282 283
255 253 253 255 259 262 263 257 258 257 257 261 264 272 273 274 276 278 281 283 287 293 300 293 300 291 292 292 286 283 283 283 282 280 279 280 280 282 282 282 281 281 279 278 279 280 282 282 286
246 249 250 257 254 248 240 245 262 256 263 264 261 266 271 273 275 275 276 280 284 282 285 282 279 283 284 282 284 283 281 280 280 280 280 280 281 282 283 283 281 278 278 279 278 279 281 284 286
252 245 248 246 247 249 250 252 260 269 269 267 262 265 268 270 271 272 274 280 282 277 275 276 275 278 279 279 281 281 283 283 282 281 283 285 284 281 281 283 284 284 281 278 279 281 281 283 282
243 247 237 246 244 253 252 251 253 256 255 257 264 265 269 268 267 271 275 277 278 276 274 274 277 280 276 272 275 279 282 283 284 283 285 287 285 281 279 277 276 277 281 279 279 281 281 279 282
225 240 244 242 245 249 256 252 235 242 245 254 266 266 269 264 263 267 269 271 273 272 272 274 275 277 279 278 276 278 282 285 286 283 284 285 286 280 278 279 276 276 278 278 278 272 274 276 277